TIME,DELAY(SENSOR),PRES,OXYGEN,RAWTEMP,T(OPTODE),TCPHASE,FLUOR,BETA(BETA700),BETA(BETA412),BETA(BETA440),CDOM,C(CSC),ED(ED412.20),ED(ED444.00),ED(ED489.60),ED(ED554.30),LU(LU412.10),LU(LU443.90),LU(LU489.70),LU(LU554.70),COMP,TILTX,TILTY,CHECK
1344396592,5810,896.6799926757812000,35.3482284545898440,559.4071044921875000,4.5042691230773930,56.2210807800293000,55,100,99,78,82,15570,0,0,0,0,2147121334,2147771392,2147572717,2147571300,271,3,13,19703
1344400188,5811,980.8599853515625000,41.5377693176269500,566.1494140625000000,4.2951598167419430,55.3467712402343750,55,105,100,78,83,15562,0,0,0,0,2147123958,2147777069,2147574756,2147571300,3281,3,13,57322
1344403788,5810,998.7199707031250000,42.2951393127441400,568.9583129882812000,4.2079300880432130,55.2646102905273440,55,102,100,78,82,15563,0,0,0,0,2147124022,2147775232,2147579437,2147571328,66,3,12,13353
1344407388,5811,1007.2500000000000000,40.3312492370605500,570.0808715820312000,4.1730480194091800,55.5689811706543000,55,99,101,78,82,15560,0,0,0,0,2147121801,2147776256,2147570422,2147569161,3393,3,13,25347
1344410988,5809,1007.8499755859375000,40.6047592163085940,569.5795898437500000,4.1886229515075680,55.5228996276855500,55,99,102,79,84,15553,0,0,0,0,2147119570,2147772937,2147577069,2147572726,74,3,13,333
1344414588,5811,1015.0100097656250000,40.6136817932128900,569.3663940429688000,4.1952500343322750,55.5205802917480500,55,98,101,78,84,15549,0,0,0,0,2147121225,2147774354,2147576429,2147568813,67,3,13,20767
1344418188,5811,1011.2700195312500000,38.6699790954589840,570.5722045898438000,4.1577777862548830,55.8193588256835940,55,99,100,78,82,15548,0,0,0,0,2147121910,2147768932,2147574793,2147571346,3315,3,13,52616
1344421788,5810,1010.3900146484375000,38.0351791381835940,571.4672241210938000,4.1299591064453125,55.9290504455566400,55,102,102,82,82,15547,0,0,0,0,2147121060,2147770971,2147579392,2147570560,260,3,13,56419
1344425388,5807,1013.0399780273438000,38.1541290283203100,571.4733886718750000,4.1297659873962400,55.9083900451660160,56,98,101,80,83,15550,0,0,0,0,2147125714,2147772662,2147572352,2147575744,176,3,13,36442
1344428988,5809,1013.9199829101562000,38.6175498962402340,571.9846191406250000,4.1138710975646970,55.8410301208496100,56,97,100,78,84,15551,0,0,0,0,2147121892,2147774464,2147579419,2147571437,121,3,13,21085
1344432588,5811,1017.2500000000000000,37.7633590698242200,571.3953857421875000,4.1321911811828610,55.9704818725585940,55,97,101,78,84,15549,0,0,0,0,2147120886,2147772507,2147577846,2147569261,155,3,13,40332
1344436188,5809,1017.4799804687500000,37.7472686767578100,571.9448242187500000,4.1151099205017090,55.9732704162597660,54,98,101,78,83,15553,0,0,0,0,2147124105,2147774985,2147574464,2147572443,185,3,13,58205
1344439788,5809,1012.4799804687500000,38.3597793579101560,572.2852783203125000,4.1045207977294920,55.8858604431152340,55,105,102,77,83,15549,0,0,0,0,2147123766,2147775478,2147577225,2147573586,136,3,13,34776
1344443388,5809,1021.2199707031250000,38.2465095520019500,571.4053955078125000,4.1318798065185550,55.8967018127441400,56,99,99,77,82,15549,0,0,0,0,2147124233,2147778806,2147571721,2147570752,187,3,13,21656
1344446988,5808,1026.6099853515625000,37.9108886718750000,570.7426757812500000,4.1524767875671390,55.9341812133789060,55,98,101,78,83,15547,0,0,0,0,2147123739,2147769782,2147574473,2147569901,441,3,13,12170
1344450588,5808,1027.7700195312500000,38.0725097656250000,570.4016113281250000,4.1630802154541020,55.9109802246093750,54,98,101,78,83,15547,0,0,0,0,2147119396,2147771940,2147576667,2147571748,335,3,13,33784
1344454188,5813,1025.4100341796875000,37.6831893920898440,570.4302978515625000,4.1621880531311035,55.9682312011718750,54,97,101,79,83,15546,0,0,0,0,2147125467,2147777883,2147574848,2147567030,255,3,13,24893
1344457788,5809,1021.8900146484375000,37.5793800354003900,571.0794067382812000,4.1420140266418460,55.9957695007324200,55,98,100,79,84,15547,0,0,0,0,2147123675,2147774948,2147576109,2147568996,480,3,13,65081
1344461388,5808,1019.8099975585938000,38.0242805480957000,571.8433837890625000,4.1182627677917480,55.9356002807617200,55,97,100,78,83,15547,0,0,0,0,2147123648,2147774994,2147577563,2147570578,106,3,13,17740
1344464988,5810,1015.4500122070312000,38.6183204650878900,572.2025146484375000,4.1070981025695800,55.8491401672363300,55,97,101,79,83,15545,0,0,0,0,2147124763,2147768274,2147574555,2147570770,329,3,13,36898
1344468588,5810,1015.0300292968750000,39.6375503540039060,572.5494995117188000,4.0963058471679690,55.7002296447753900,55,99,101,78,83,15531,0,0,0,0,2147122678,2147777161,2147576932,2147571840,466,3,13,15680
1344472188,5809,1017.5200195312500000,40.5244903564453100,572.7788696289062000,4.0891699790954590,55.5631904602050800,56,98,101,80,84,15533,0,0,0,0,2147124352,2147774454,2147575570,2147571190,277,3,13,57857
1344475788,5812,1017.4500122070312000,40.8351516723632800,573.0609130859375000,4.0804018974304200,55.5243682861328100,55,100,102,78,83,15530,0,0,0,0,2147121206,2147772406,2147577673,2147572150,3568,3,13,45244
1344479388,5812,1013.0700073242188000,40.2318496704101560,573.2606811523438000,4.0741858482360840,55.6131095886230500,55,99,100,78,82,15533,0,0,0,0,2147121536,2147776155,2147575094,2147570779,1060,3,13,27709
1344482988,5811,1019.6099853515625000,40.3630599975585940,572.9788818359375000,4.0829520225524900,55.5956802368164060,54,100,101,77,82,15532,0,0,0,0,2147122587,2147775177,2147577005,2147570249,44,3,13,41654
1344486588,5808,1022.8699951171875000,39.7211608886718750,572.6237792968750000,4.0939941406250000,55.6818084716796900,55,99,100,79,82,15529,0,0,0,0,2147122825,2147770724,2147579849,2147570212,133,3,13,21354
1344490188,5806,1022.4600219726562000,39.7930107116699200,572.6621704101562000,4.0928001403808590,55.6771697998046900,55,100,102,78,83,15531,0,0,0,0,2147123584,2147764928,2147578806,2147567405,147,3,13,27902
1344493788,5810,1030.2500000000000000,38.9129219055175800,571.7653808593750000,4.1206860542297360,55.7948799133300800,54,99,101,78,83,15501,0,0,0,0,2147122633,2147771949,2147576621,2147570523,341,3,13,61901
1344497388,5808,1031.6899414062500000,37.1465110778808600,571.0098876953125000,4.1441750526428220,56.0578193664550800,56,99,100,78,83,15531,0,0,0,0,2147119936,2147774848,2147578276,2147570441,72,3,13,21834
1344500988,5813,1027.1099853515625000,37.2428092956543000,571.6359252929688000,4.1247138977050780,56.0527000427246100,55,100,101,78,83,15534,0,0,0,0,2147120868,2147774390,2147573549,2147571227,3564,3,13,58425
1344504588,5807,1029.4000244140625000,38.7128791809082000,572.2415161132812000,4.1058850288391110,55.8310089111328100,56,97,100,78,83,15529,0,0,0,0,2147122733,2147772626,2147571456,2147571702,112,3,13,42293
1344508188,5810,1025.0699462890625000,38.5169296264648440,572.0205078125000000,4.1127548217773440,55.8622703552246100,56,98,101,78,83,15533,0,0,0,0,2147121042,2147771949,2147580781,2147572324,3561,3,13,20356
1344511788,5808,1022.6599731445312000,38.4869308471679700,572.5222778320312000,4.0971531867980960,55.8673896789550800,55,98,100,78,84,15533,0,0,0,0,2147124205,2147775798,2147573906,2147571492,3585,3,13,59267
1344515388,5811,1026.9000244140625000,40.1462898254394500,572.7971191406250000,4.0886077880859375,55.6266098022460940,54,100,102,79,83,15533,0,0,0,0,2147122770,2147770477,2147578066,2147570532,3479,3,13,36204
1344518988,5810,1030.3100585937500000,39.5006599426269500,572.4918823242188000,4.0980968475341800,55.7144584655761700,56,97,100,78,82,15529,0,0,0,0,2147125952,2147773138,2147578340,2147572827,3281,3,13,35872
1344522588,5812,1029.0899658203125000,39.0324096679687500,572.0139160156250000,4.1129608154296875,55.7821197509765600,56,99,101,77,83,15532,0,0,0,0,2147124260,2147776640,2147576576,2147569389,103,3,13,27518
1344526188,5812,1030.3299560546875000,38.4827499389648440,571.8906860351562000,4.1167907714843750,55.8650283813476560,56,98,101,77,83,15532,0,0,0,0,2147122980,2147774290,2147571702,2147573092,3571,3,13,4064
1344529788,5812,1030.7700195312500000,38.3745117187500000,571.5364990234375000,4.1278038024902340,55.8755302429199200,54,99,101,77,84,15531,0,0,0,0,2147124763,2147773083,2147576950,2147571830,345,3,13,26456
1344533388,5809,1024.5400390625000000,38.2967987060546900,571.5593261718750000,4.1270937919616700,55.8874702453613300,55,98,101,77,83,15528,0,0,0,0,2147121426,2147776576,2147577252,2147571812,172,3,13,6263
1344536988,5811,1027.0400390625000000,38.5349807739257800,572.3353271484375000,4.1029682159423830,55.8598594665527340,55,97,101,80,84,15530,0,0,0,0,2147123602,2147777764,2147574756,2147570267,49,3,13,3944
1344540356,5808,1028.1899414062500000,38.0271797180175800,571.6389160156250000,4.1246190071105960,55.9289703369140600,55,99,102,78,84,15530,0,0,0,0,2147121197,2147775149,2147578057,2147572772,253,3,13,25208
